Date String (YYYY-MM-DD hh:mm:ss) UTC,Instrument flags,absolute air pressure of the measurement (hPa),sample flow rate (lpm),inlet stack bypass flow (lpm),air temperature of the measurement (°C),ambient temperature measured by the external sensor (°C),aerosol sample conditioner tube jacket temperature (°C),OPC LED temperature (°C),internal box temperature (°C),relative humidity of the measurement (%),span deviation,mass concentration of particles derived from Lorenz-Mie calculation of OPC scattering (μg/m³),mass concentration of particles derived from Lorenz-Mie calculation of OPC scattering (μg/m³),mass concentration of particles derived from Lorenz-Mie calculation of OPC scattering (μg/m³)
DateTimeUTC,F1_M11,P_M11,Q1_M11,Q2_M11,T1_M11,T2_M11,T3_M11,T4_M11,T5_M11,U1_M11,ZSPAN_M11,X0_M11,X2_M11,X1_M11
2024-02-01 06:00:00,SystemResetWarning,0826.7,4.99,000.00,025.7,025.0,000.0,034.1,027.5,08.7,0000.0,0011.23,0003.44,0002.80
2024-02-01 06:01:00,SystemResetWarning,0826.8,4.99,000.00,025.7,025.0,000.0,034.1,027.5,08.7,0000.0,0011.37,0003.49,0002.85
2024-02-01 06:02:00,SystemResetWarning,0826.8,5.00,000.00,025.7,025.0,000.0,034.1,027.5,08.7,0000.0,0012.00,0003.49,0002.87
2024-02-01 06:03:00,SystemResetWarning,0826.8,5.00,000.00,025.7,025.0,000.0,034.1,027.5,08.8,0000.0,0011.43,0003.45,0002.84
2024-02-01 06:04:00,SystemResetWarning,0826.8,5.00,000.00,025.7,025.0,000.0,034.1,027.5,08.7,0000.0,0010.92,0003.44,0002.84
2024-02-01 06:05:00,SystemResetWarning,0826.8,5.01,000.00,025.7,025.0,000.0,034.1,027.5,08.7,0000.0,0011.46,0003.47,0002.88
2024-02-01 06:06:00,SystemResetWarning,0826.8,5.01,000.00,025.7,025.0,000.0,034.1,027.5,08.8,0000.0,0011.13,0003.49,0002.91
2024-02-01 06:07:00,SystemResetWarning,0826.8,4.99,000.00,025.7,025.0,000.0,034.1,027.5,08.8,0000.0,0010.95,0003.54,0002.96
2024-02-01 06:08:00,SystemResetWarning,0826.8,4.99,000.00,025.7,025.0,000.0,034.1,027.5,08.8,0000.0,0010.94,0003.57,0003.00
2024-02-01 06:09:00,SystemResetWarning,0826.8,5.00,000.00,025.7,025.0,000.0,034.1,027.5,08.8,0000.0,0011.18,0003.63,0003.08
2024-02-01 06:10:00,SystemResetWarning,0826.7,5.01,000.00,025.7,025.0,000.0,034.1,027.5,08.8,0000.0,0012.09,0003.77,0003.19
2024-02-01 06:11:00,SystemResetWarning,0826.8,5.01,000.00,025.7,025.0,000.0,034.1,027.5,08.8,0000.0,0012.48,0003.93,0003.31
2024-02-01 06:12:00,SystemResetWarning,0826.7,5.00,000.00,025.7,025.0,000.0,034.1,027.5,08.8,0000.0,0013.50,0004.06,0003.41
2024-02-01 06:13:00,SystemResetWarning,0826.7,4.99,000.00,025.7,025.0,000.0,034.1,027.5,08.8,0000.0,0012.71,0004.16,0003.50
2024-02-01 06:14:00,SystemResetWarning,0826.8,4.99,000.00,025.7,025.0,000.0,034.1,027.5,08.8,0000.0,0013.01,0004.32,0003.60
2024-02-01 06:15:00,SystemResetWarning,0826.8,5.00,000.00,025.7,025.0,000.0,034.1,027.5,08.7,0000.0,0013.23,0004.39,0003.67
2024-02-01 06:16:00,SystemResetWarning,0826.7,5.01,000.00,025.7,025.0,000.0,034.1,027.5,08.7,0000.0,0013.57,0004.47,0003.72
2024-02-01 06:17:00,SystemResetWarning,0826.6,5.01,000.00,025.7,025.0,000.0,034.1,027.5,08.8,0000.0,0013.53,0004.52,0003.76
2024-02-01 06:18:00,SystemResetWarning,0826.6,4.99,000.00,025.7,025.0,000.0,034.1,027.5,08.8,0000.0,0012.98,0004.55,0003.79
2024-02-01 06:19:00,SystemResetWarning,0826.6,5.00,000.00,025.7,025.0,000.0,034.1,027.5,08.8,0000.0,0012.95,0004.55,0003.81
2024-02-01 06:20:00,SystemResetWarning,0826.6,5.01,000.00,025.7,025.0,000.0,034.1,027.5,08.8,0000.0,0012.82,0004.56,0003.81
2024-02-01 06:21:00,SystemResetWarning,0826.6,5.00,000.00,025.7,025.0,000.0,034.1,027.5,08.8,0000.0,0013.74,0004.47,0003.75
2024-02-01 06:22:00,SystemResetWarning,0826.7,5.00,000.00,025.7,025.0,000.0,034.1,027.5,08.8,0000.0,0014.77,0004.34,0003.67
2024-02-01 06:23:00,SystemResetWarning,0826.7,5.00,000.00,025.7,025.0,000.0,034.1,027.5,08.8,0000.0,0014.64,0004.22,0003.60
2024-02-01 06:24:00,SystemResetWarning,0826.8,5.00,000.00,025.7,025.0,000.0,034.1,027.5,08.8,0000.0,0014.88,0004.18,0003.54
2024-02-01 06:25:00,SystemResetWarning,0826.7,5.00,000.00,025.7,025.0,000.0,034.1,027.5,08.9,0000.0,0015.05,0004.12,0003.50
2024-02-01 06:26:00,SystemResetWarning,0826.7,5.00,000.00,025.7,025.0,000.0,034.1,027.5,08.9,0000.0,0015.01,0004.07,0003.44
2024-02-01 06:27:00,SystemResetWarning,0826.6,5.00,000.00,025.7,025.0,000.0,034.1,027.5,08.9,0000.0,0015.16,0004.04,0003.40
2024-02-01 06:28:00,SystemResetWarning,0826.7,4.98,000.00,025.7,025.0,000.0,034.1,027.5,08.9,0000.0,0016.17,0004.03,0003.38
2024-02-01 06:29:00,SystemResetWarning,0826.7,5.00,000.00,025.7,025.0,000.0,034.1,027.5,08.9,0000.0,0016.53,0004.03,0003.35
2024-02-01 06:30:00,SystemResetWarning,0826.6,5.01,000.00,025.7,025.0,000.0,034.1,027.5,08.9,0000.0,0017.17,0004.03,0003.32
2024-02-01 06:31:00,SystemResetWarning,0826.6,5.00,000.00,025.7,025.0,000.0,034.1,027.5,08.9,0000.0,0018.24,0003.98,0003.28
2024-02-01 06:32:00,SystemResetWarning,0826.6,5.01,000.00,025.7,025.0,000.0,034.1,027.5,08.9,0000.0,0017.15,0003.94,0003.25
2024-02-01 06:33:00,SystemResetWarning,0826.6,5.00,000.00,025.7,025.0,000.0,034.1,027.5,09.0,0000.0,0016.63,0003.96,0003.24
2024-02-01 06:34:00,SystemResetWarning,0826.6,5.00,000.00,025.7,025.0,000.0,034.1,027.5,09.0,0000.0,0015.85,0003.94,0003.22
2024-02-01 06:35:00,SystemResetWarning,0826.6,4.99,000.00,025.7,025.0,000.0,034.1,027.5,09.0,0000.0,0015.81,0003.89,0003.18
2024-02-01 06:36:00,SystemResetWarning,0826.6,4.98,000.00,025.7,025.0,000.0,034.1,027.5,08.9,0000.0,0015.52,0003.80,0003.13
2024-02-01 06:37:00,SystemResetWarning,0826.6,5.02,000.00,025.7,025.0,000.0,034.1,027.5,08.8,0000.0,0016.82,0003.78,0003.10
2024-02-01 06:38:00,SystemResetWarning,0826.6,4.99,000.00,025.7,025.0,000.0,034.1,027.5,08.8,0000.0,0015.85,0003.74,0003.09
2024-02-01 06:39:00,SystemResetWarning,0826.6,4.98,000.00,025.7,025.0,000.0,034.1,027.5,08.9,0000.0,0014.77,0003.70,0003.07
2024-02-01 06:40:00,SystemResetWarning,0826.6,5.00,000.00,025.7,025.0,000.0,034.1,027.5,08.9,0000.0,0015.72,0003.67,0003.04
2024-02-01 06:41:00,SystemResetWarning,0826.6,5.00,000.00,025.7,025.0,000.0,034.1,027.5,08.8,0000.0,0015.06,0003.63,0003.03
2024-02-01 06:42:00,SystemResetWarning,0826.6,5.00,000.00,025.7,025.0,000.0,034.1,027.5,08.9,0000.0,0014.16,0003.67,0003.05
2024-02-01 06:43:00,SystemResetWarning,0826.6,5.01,000.00,025.7,025.0,000.0,034.1,027.5,08.9,0000.0,0014.29,0003.71,0003.05
2024-02-01 06:44:00,SystemResetWarning,0826.6,4.98,000.00,025.7,025.0,000.0,034.1,027.5,08.9,0000.0,0014.17,0003.70,0003.05
2024-02-01 06:45:00,SystemResetWarning,0826.6,5.00,000.00,025.7,025.0,000.0,034.1,027.5,08.9,0000.0,0014.36,0003.73,0003.08
2024-02-01 06:46:00,SystemResetWarning,0826.6,5.00,000.00,025.7,025.0,000.0,034.1,027.5,08.9,0000.0,0014.32,0003.72,0003.10
2024-02-01 06:47:00,SystemResetWarning,0826.6,5.00,000.00,025.7,025.0,000.0,034.1,027.5,08.8,0000.0,0014.26,0003.73,0003.11
2024-02-01 06:48:00,SystemResetWarning,0826.6,5.01,000.00,025.7,025.0,000.0,034.1,027.5,08.8,0000.0,0012.41,0003.75,0003.12
2024-02-01 06:49:00,SystemResetWarning,0826.6,5.01,000.00,025.7,025.0,000.0,034.1,027.5,08.8,0000.0,0012.49,0003.77,0003.10
2024-02-01 06:50:00,SystemResetWarning,0826.6,4.99,000.00,025.7,025.0,000.0,034.1,027.5,08.8,0000.0,0012.87,0003.80,0003.07
2024-02-01 06:51:00,SystemResetWarning,0826.6,4.99,000.00,025.7,025.0,000.0,034.1,027.5,08.8,0000.0,0011.55,0003.76,0003.05
2024-02-01 06:52:00,SystemResetWarning,0826.6,5.02,000.00,025.7,025.0,000.0,034.1,027.5,08.8,0000.0,0011.59,0003.77,0003.03
2024-02-01 06:53:00,SystemResetWarning,0826.6,5.01,000.00,025.7,025.0,000.0,034.1,027.5,08.8,0000.0,0011.91,0003.76,0002.99
2024-02-01 06:54:00,SystemResetWarning,0826.6,4.98,000.00,025.7,025.0,000.0,034.1,027.5,08.8,0000.0,0011.39,0003.71,0002.93
2024-02-01 06:55:00,SystemResetWarning,0826.6,4.99,000.00,025.7,025.0,000.0,034.1,027.5,08.8,0000.0,0011.14,0003.69,0002.87
2024-02-01 06:56:00,SystemResetWarning,0826.6,5.00,000.00,025.7,025.0,000.0,034.1,027.5,08.8,0000.0,0011.85,0003.64,0002.78
2024-02-01 06:57:00,SystemResetWarning,0826.6,5.01,000.00,025.7,025.0,000.0,034.1,027.5,08.8,0000.0,0012.74,0003.62,0002.73
2024-02-01 06:58:00,SystemResetWarning,0826.6,5.01,000.00,025.7,025.0,000.0,034.1,027.5,08.8,0000.0,0012.67,0003.59,0002.66
2024-02-01 06:59:00,SystemResetWarning,0826.5,5.01,000.00,025.7,025.0,000.0,034.1,027.5,08.8,0000.0,0012.78,0003.52,0002.59
